Location: Beaumont
(49.6890°N, 3.1316°E)
Time: 07:55:56
(UTC+00:00)

Daily predictions for brighter satellites

Satellite Brightness Start Highest point End
(mag) Time Altitude Azimuth Time Altitude Azimuth Time Altitude Azimuth
Cosmos 1992 Rocket 4.4 16:18:37 10° NNW 16:23:50 71° WSW 16:29:02 10° SSE
RESURS DK-1 3.4 16:20:10 10° SW 16:24:06 42° NW 16:28:04 10° NNE
Helios 1A Rocket 2.9 16:20:05 10° SSE 16:24:11 82° ENE 16:28:16 10° NNW
Cosmos 2237 Rocket 2.3 16:19:14 10° SSW 16:24:54 71° ESE 16:30:35 10° NNE
Cosmos 2251 Rocket 3.6 16:19:55 10° SSW 16:25:13 85° ESE 16:30:31 10° NNE
Cosmos 1943 Rocket 3.1 16:21:19 10° NNW 16:26:08 28° NE 16:30:55 10° ESE
Cosmos 1500 3.3 16:24:47 10° NNW 16:28:33 80° W 16:32:18 10° S
Cosmos 2322 Rocket 4.3 16:25:28 10° WNW 16:28:59 16° NNW 16:32:31 10° N
Cosmos 1536 2.8 16:24:59 10° N 16:28:59 64° ENE 16:32:57 10° SSE
Cosmos 2219 Rocket 3.0 16:24:34 10° SW 16:30:01 49° NW 16:35:32 10° NNE
STARLINK-67 3.0 16:27:49 10° WNW 16:30:31 44° N 16:33:11 10° E
Cosmos 1812 2.7 16:27:40 10° S 16:31:32 79° E 16:35:25 10° NNE
Feng Yun 1-1 Rocket 4.4 16:26:57 10° SE 16:32:06 49° ENE 16:37:20 10° N
Cosmos 1689 Rocket 2.0 16:29:21 10° NNE 16:32:24 83° ESE 16:35:24 10° SSW
Cosmos 1782 Rocket 4.3 16:29:35 10° N 16:33:29 31° ENE 16:37:20 10° SE
Lacrosse 5 rocket 2.0 16:31:31 10° W 16:35:40 46° NNW 16:39:36 10° NE
Cosmos 2333 Rocket 3.2 16:30:44 10° SW 16:36:14 45° NW 16:41:49 10° NNE
FALCON 9 DEB 3.3 16:33:04 10° WSW 16:36:34 73° SSE 16:39:56 11° ENE
AQUARIUS 4.5 16:34:37 10° SE 16:38:53 44° ENE 16:43:10 10° N
STARLINK-46 3.2 16:36:43 10° WNW 16:39:15 37° N 16:41:28 12° ENE
SL-4 R/B 1.9 16:36:01 10° W 16:39:41 64° N 16:43:40 10° E
SL-16 R/B 4.4 16:38:28 10° WNW 16:41:18 14° NNW 16:44:07 10° N
Radarsat Rocket 4.2 16:36:30 10° SSE 16:42:29 77° WSW 16:48:20 10° NNW
Cosmos 1862 Rocket 3.6 16:38:19 10° S 16:42:42 88° W 16:47:10 10° N
Lacrosse 5 3.9 16:43:56 10° SE 16:45:40 12° ESE 16:47:24 10° E
Cosmos 1703 Rocket 4.1 16:42:36 10° SSE 16:46:47 40° E 16:51:00 10° NNE
Okean 1 4.5 16:45:50 10° SE 16:49:01 24° E 16:52:14 10° NE
Cosmos 405 Rocket 4.2 16:48:06 10° NNE 16:50:26 16° ENE 16:52:47 10° ESE
Okean 2 Rocket 4.2 16:47:19 10° NNE 16:50:57 23° ENE 16:54:35 10° ESE
Aureole 1 Rocket 2.3 16:51:37 10° SSW 16:54:38 66° ESE 16:58:12 10° NNE
ATLAS 2AS CENTAUR R/B 4.0 16:47:21 10° W 16:54:42 37° NNW 17:01:46 10° NE
STARLINK-60 3.1 16:52:34 10° WSW 16:55:56 74° NNW 16:58:26 17° ENE
BREEZE-M R/B 3.1 16:49:44 10° W 16:56:15 86° S 16:59:21 12° E
NOAA 12 4.3 16:51:26 10° SE 16:56:30 49° ENE 17:01:35 10° N
Cosmos 1980 4.0 16:51:41 10° SW 16:57:18 67° WNW 17:02:58 10° NNE
Sich 1 Rocket 3.9 16:53:53 10° N 16:58:03 40° ENE 17:02:11 10° SE
Cosmos 1441 Rocket 3.0 16:57:36 10° N 17:01:25 74° ENE 17:05:10 10° SSE
H-2A R/B 2.5 17:02:12 10° SSE 17:05:52 79° ENE 17:09:34 10° N
SMAP 3.0 17:02:43 10° SSE 17:07:22 88° E 17:12:04 10° NNW
Cosmos 2297 4.0 17:02:50 10° NNW 17:08:33 74° WSW 17:14:11 10° SSE
COBE Rocket 3.8 17:04:54 10° NNE 17:09:33 65° E 17:14:16 10° S
Okean O Rocket 3.5 17:06:43 10° SSW 17:10:39 33° W 17:14:37 10° NNW
Cosmos 1627 Rocket 4.5 17:04:53 10° S 17:10:51 61° E 17:16:56 10° NNE
STARLINK-52 3.1 17:07:51 10° WSW 17:11:21 85° NNW 17:13:24 23° ENE
Okean 1-7 3.1 17:07:36 10° S 17:11:54 60° E 17:16:14 10° NNE
Cosmos 1666 3.2 17:08:35 10° NNW 17:12:17 60° W 17:15:58 10° S
Cosmos 1867 3.6 17:08:25 10° NW 17:13:55 85° SW 17:19:22 10° SE
CZ-4 R/B 2.1 17:11:27 10° SE 17:14:45 28° ENE 17:18:05 10° N
USA 215 3.3 17:10:07 16° ENE 17:15:33 71° SE 17:22:04 10° SW
Cosmos 1908 Rocket 4.1 17:11:47 10° NNW 17:16:07 61° W 17:20:23 10° S
BREEZE-M DEB (TANK) 3.1 17:11:16 10° W 17:16:16 48° S 17:18:32 15° ESE
YAOGAN 6 3.1 17:14:43 10° SE 17:18:01 36° ENE 17:21:23 10° N
Abrixas rocket 3.8 17:16:19 10° SSW 17:18:38 20° SSE 17:19:38 18° ESE
STARLINK-29 3.2 17:15:58 10° WSW 17:19:30 74° NNW 17:21:14 28° ENE
Cosmos 2242 Rocket 4.2 17:15:11 10° SSW 17:19:43 61° WNW 17:24:17 10° N
Exosat Rocket 4.4 17:15:22 10° SW 17:20:13 46° NW 17:25:18 10° NNE
Cosmos 614 Rocket 3.9 17:17:05 10° SSW 17:22:09 73° ESE 17:26:37 13° NNE
Cosmos 1300 Rocket 4.2 17:19:04 10° N 17:22:58 32° ENE 17:26:50 10° SE
Cosmos 1092 Rocket 4.0 17:17:12 10° S 17:23:29 87° W 17:29:46 10° N
Cosmos 1975 2.9 17:19:43 10° N 17:23:38 49° ENE 17:27:32 10° SSE
Cosmos 1190 Rocket 4.0 17:19:43 10° S 17:24:51 65° ESE 17:29:07 15° NNE
COSMO-SKYMED 1 3.3 17:23:32 22° NE 17:25:34 33° E 17:29:30 10° SSE
Cosmos 676 Rocket 4.3 17:23:02 10° S 17:27:54 43° ESE 17:30:53 22° NE
CZ-4B R/B 4.3 17:27:33 10° NNW 17:29:30 14° WNW 17:31:25 10° W
YAOGAN 1 3.1 17:26:22 10° SE 17:30:18 35° ENE 17:34:16 10° N
YAOGAN 3 4.5 17:26:39 10° SSE 17:31:01 86° ENE 17:35:25 10° NNW
Cosmos 1655 Rocket 4.3 17:25:22 10° SSE 17:31:11 42° E 17:37:00 10° NNE
Cosmos 1954 Rocket 4.3 17:28:22 10° S 17:33:15 45° ESE 17:36:01 24° NE
Meteor 2-9 Rocket 4.3 17:28:08 10° N 17:33:57 60° ENE 17:39:39 10° SSE
Cosmos 921 Rocket 4.2 17:30:41 10° NNW 17:34:48 45° WSW 17:38:58 10° S
Lacrosse 4 Rocket 3.1 17:34:03 10° N 17:36:09 17° NNE 17:36:09 17° NNE
Okean-O 2.7 17:33:26 10° SSE 17:37:52 83° WSW 17:42:20 10° NNW
Okean 3 3.9 17:34:05 10° SSE 17:37:56 37° E 17:38:36 34° ENE
Cosmos 1174 4.1 17:34:08 10° SW 17:38:48 66° NW 17:40:53 26° NNE
Cosmos 1943 4.0 17:37:41 10° SSE 17:42:21 28° ESE 17:42:49 27° E
Cosmos 1656 Rocket 4.1 17:39:34 10° NNW 17:44:37 37° NE 17:46:04 31° E
Cosmos 1140 Rocket 3.4 17:45:46 10° SSW 17:50:53 85° ESE 17:54:13 23° NNE
USA 267 3.6 17:44:39 10° SE 17:51:08 64° SW 17:57:39 10° WNW
Cosmos 2369 Rocket 2.1 17:46:21 10° NNW 17:52:01 79° ENE 17:57:41 10° SSE
NOSS 3-1 (C) 3.9 17:45:08 10° NW 17:52:27 74° NE 18:00:54 10° SE
Cosmos 1743 3.6 17:49:17 10° NNW 17:53:03 50° W 17:56:48 10° S
STARLINK-43 3.2 17:52:41 10° WSW 17:56:24 73° SSE 17:56:47 65° ESE
S3M 3.8 17:50:27 10° N 17:56:41 75° E 18:02:47 10° SSE
Envisat 3.5 17:53:16 10° S 17:58:18 63° WSW 18:03:22 10° NNW
Cosmos 1023 Rocket 4.5 17:54:15 10° SSW 17:59:20 81° WNW 18:02:33 24° NNE
Cosmos 2266 Rocket 4.2 17:55:28 10° SSE 18:01:33 48° E 18:05:44 20° NNE
SL-16 R/B 2.7 17:56:32 10° SW 18:02:09 59° WNW 18:06:14 19° NNE
Cosmos 468 Rocket 4.0 17:57:37 10° NNW 18:02:45 57° ENE 18:04:48 34° SE
Cosmos 2151 Rocket 3.4 17:58:31 10° N 18:02:57 72° E 18:07:19 10° SSE
Meteor 1-18 Rocket 4.3 17:57:16 10° SSW 18:02:57 78° WNW 18:08:35 10° N
USA 229 DEB 3.8 17:56:43 10° NW 18:03:57 83° NE 18:10:45 13° SE
USA 229 3.8 17:56:49 10° NW 18:04:03 83° NE 18:10:44 14° SE
STARLINK-67 3.9 18:02:11 10° WNW 18:04:16 40° WSW 18:04:16 40° WSW
IRIDIUM 103 4.3 17:59:53 10° SSE 18:04:57 54° E 18:07:13 31° NNE
Cosmos 1553 Rocket 4.2 18:00:19 10° NNW 18:06:42 75° W 18:13:06 10° S
Cosmos 407 Rocket 4.2 18:03:11 10° SW 18:08:17 53° WNW 18:12:09 18° NNE
NOSS 3-1 (A) 3.9 18:02:10 10° NW 18:09:25 68° NE 18:14:14 28° ESE
Cosmos 2237 Rocket 3.9 18:04:43 10° W 18:09:31 27° NW 18:13:54 12° N
Cosmos 1603 3.8 18:03:57 10° S 18:09:32 57° ESE 18:10:51 46° ENE
Cosmos 1943 Rocket 2.5 18:04:47 10° NNW 18:10:23 67° WSW 18:15:55 10° SSE
FALCON 9 DEB 4.0 18:10:23 10° W 18:13:16 44° NW 18:13:16 44° NW
SKYMED 2 3.5 18:12:11 38° N 18:13:51 85° WNW 18:18:10 10° SSW
Cosmos 2219 Rocket 4.5 18:12:18 10° WNW 18:15:25 15° NNW 18:18:34 10° N
Lacrosse 5 rocket 2.6 18:11:55 10° WNW 18:15:14 28° N 18:15:14 28° N
Cosmos 1850 Rocket 4.4 18:12:47 10° S 18:17:00 43° SE 18:17:00 43° SE
SL-4 R/B 2.0 18:15:34 10° WNW 18:19:21 74° SW 18:19:21 74° SW
STARLINK-80 3.9 18:17:02 10° SW 18:20:09 55° SSW 18:20:09 55° SSW
CZ-4C R/B 2.3 18:17:49 10° SSW 18:22:33 51° SE 18:22:33 51° SE
IRIDIUM 106 4.2 18:18:00 10° S 18:23:12 76° E 18:25:24 36° NNE
SeaSat 1 4.2 18:26:42 19° N 18:26:42 19° N 18:28:29 10° NNW
Cosmos 405 Rocket 3.6 18:23:08 10° NNW 18:26:43 47° W 18:30:18 10° S
Lacrosse 5 2.1 18:22:43 10° SW 18:27:22 54° SSE 18:27:22 54° SSE
CSL-04 Rocket 3.7 18:22:36 10° S 18:27:53 75° WSW 18:33:14 10° NNW
Okean 2 Rocket 4.3 18:24:58 10° NNW 18:29:14 43° W 18:33:30 10° SSW
Cosmos 2208 Rocket 4.5 18:23:52 10° NNW 18:28:09 47° NNE 18:28:09 47° NNE
USA 116 4.3 18:30:03 50° NNE 18:31:27 90° NW 18:36:23 10° SSW
Meteor 2-4 Rocket 3.7 18:28:39 10° SSW 18:34:30 86° W 18:37:11 34° N
Ariane Rocket 4.2 18:43:51 31° N 18:43:51 31° N 18:46:26 10° NNW
Cosmos 1570 Rocket 4.3 18:36:59 10° NNW 18:41:08 55° N 18:41:08 55° N
Cosmos 883 Rocket 4.5 18:37:00 10° N 18:43:22 84° W 18:49:38 10° S
Gbstr 26 Del rocket 4.1 18:38:28 10° SW 18:45:06 56° SSE 18:45:06 56° SSE
Cosmos 2315 Rocket 3.8 18:39:25 10° N 18:45:49 84° E 18:52:05 10° S
Cosmos 2344 4.3 18:37:37 10° NW 18:47:06 89° SW 18:58:09 17° SE
ATLAS 2AS CENTAUR R/B 4.0 18:41:09 10° NW 18:47:57 29° N 18:49:12 28° NNE
Cosmos 1763 Rocket 3.6 18:43:17 10° NNW 18:47:49 69° NW 18:47:49 69° NW
Meteor 2-8 Rocket 4.3 18:43:40 10° N 18:49:46 84° W 18:55:49 10° S
CZ-4 R/B 3.3 18:46:24 10° SSW 18:49:46 28° W 18:53:08 10° NW
USA 215 3.5 18:57:28 53° NNE 18:58:31 59° NNW 19:04:54 10° W
COSMO-SKYMED 1 4.3 19:00:45 28° NW 19:01:41 30° WNW 19:05:29 10° SW
YAOGAN 1 4.5 19:02:43 10° SSW 19:06:27 28° W 19:10:13 10° NW
Lacrosse 4 Rocket 4.2 19:12:02 10° NW 19:12:29 13° NW 19:12:29 13° NW
Cosmos 1943 4.1 19:20:30 10° SW 19:24:41 45° WSW 19:24:41 45° WSW
SL-16 R/B 4.5 19:43:56 10° WNW 19:47:32 17° NNW 19:48:08 17° NNW
CZ-4C R/B 4.4 20:06:14 10° WSW 20:07:47 19° W 20:07:47 19° W
